TimeCDT,TemperatureF,Dew PointF,Humidity,Sea Level PressureIn,VisibilityMPH,Wind Direction,Wind SpeedMPH,Gust SpeedMPH,PrecipitationIn,Events,Conditions,WindDirDegrees,DateUTC
12:24 AM,75.2,71.6,89,29.88,10.0,ENE,4.6,-,N/A,,Scattered Clouds,60,2013-09-24 05:24:00
12:32 AM,75.2,73.4,94,29.88,10.0,ENE,5.8,-,N/A,,Mostly Cloudy,70,2013-09-24 05:32:00
12:44 AM,75.2,73.4,94,29.88,10.0,ENE,5.8,-,N/A,,Scattered Clouds,70,2013-09-24 05:44:00
12:56 AM,75.0,73.0,94,29.88,10.0,ENE,5.8,-,N/A,,Scattered Clouds,70,2013-09-24 05:56:00
1:06 AM,75.2,73.4,94,29.89,10.0,ENE,8.1,-,N/A,,Mostly Cloudy,70,2013-09-24 06:06:00
1:56 AM,75.0,72.0,90,29.88,10.0,East,5.8,-,N/A,,Partly Cloudy,80,2013-09-24 06:56:00
2:56 AM,73.9,72.0,93,29.88,10.0,East,3.5,-,N/A,,Mostly Cloudy,80,2013-09-24 07:56:00
3:56 AM,73.9,72.0,93,29.87,10.0,Calm,Calm,-,N/A,,Scattered Clouds,0,2013-09-24 08:56:00
4:56 AM,73.9,72.0,93,29.87,10.0,ENE,3.5,-,N/A,,Scattered Clouds,60,2013-09-24 09:56:00
5:56 AM,73.9,72.0,93,29.88,5.0,ENE,4.6,-,0.01,,Mostly Cloudy,60,2013-09-24 10:56:00
6:09 AM,73.4,71.6,94,29.89,5.0,ENE,4.6,-,N/A,,Mostly Cloudy,70,2013-09-24 11:09:00
6:56 AM,73.9,72.0,93,29.89,5.0,East,4.6,-,0.00,,Mostly Cloudy,90,2013-09-24 11:56:00
7:11 AM,73.4,71.6,94,29.90,3.0,ENE,5.8,-,N/A,,Overcast,70,2013-09-24 12:11:00
7:56 AM,75.0,73.0,94,29.89,3.0,East,5.8,-,N/A,,Overcast,80,2013-09-24 12:56:00
8:56 AM,77.0,73.0,88,29.90,3.0,East,9.2,-,N/A,,Overcast,90,2013-09-24 13:56:00
9:56 AM,78.1,73.9,87,29.89,7.0,East,9.2,-,N/A,,Overcast,100,2013-09-24 14:56:00
10:56 AM,79.0,73.9,84,29.90,3.0,SE,8.1,-,N/A,,Haze,140,2013-09-24 15:56:00
11:34 AM,82.4,73.4,74,29.90,3.0,SE,6.9,-,N/A,,Haze,130,2013-09-24 16:34:00
11:56 AM,80.1,75.0,85,29.87,4.0,ESE,11.5,-,0.02,Rain,Light Rain,120,2013-09-24 16:56:00
12:01 PM,80.6,75.2,84,29.88,1.0,SSE,13.8,19.6,0.01,Rain,Heavy Rain,150,2013-09-24 17:01:00
12:04 PM,78.8,75.2,89,29.88,2.0,South,9.2,20.7,0.01,Rain,Heavy Rain,170,2013-09-24 17:04:00
12:11 PM,78.8,75.2,89,29.88,3.0,SE,9.2,20.7,0.11,Rain,Heavy Rain,140,2013-09-24 17:11:00
12:18 PM,78.8,75.2,89,29.88,3.0,SSE,8.1,-,0.11,Rain,Light Rain,150,2013-09-24 17:18:00
12:36 PM,78.8,75.2,89,29.87,4.0,SE,15.0,-,0.11,,Mostly Cloudy,130,2013-09-24 17:36:00
12:56 PM,80.1,73.9,81,29.85,7.0,SSE,12.7,-,0.11,,Mostly Cloudy,160,2013-09-24 17:56:00
1:56 PM,84.0,73.9,72,29.81,10.0,SE,12.7,-,N/A,,Mostly Cloudy,140,2013-09-24 18:56:00
2:37 PM,84.2,73.4,70,29.81,10.0,ESE,12.7,-,N/A,,Mostly Cloudy,110,2013-09-24 19:37:00
2:56 PM,86.0,75.0,70,29.80,10.0,ESE,12.7,-,N/A,,Mostly Cloudy,110,2013-09-24 19:56:00
3:48 PM,84.2,73.4,70,29.80,10.0,SE,12.7,-,N/A,,Mostly Cloudy,140,2013-09-24 20:48:00
3:56 PM,82.9,73.9,74,29.80,10.0,SE,11.5,-,N/A,,Mostly Cloudy,140,2013-09-24 20:56:00
4:56 PM,80.1,75.0,85,29.82,7.0,SSE,4.6,-,0.01,Rain-Thunderstorm,Heavy Thunderstorms and Rain,160,2013-09-24 21:56:00
5:56 PM,73.9,70.0,87,29.83,7.0,North,15.0,20.7,0.07,Thunderstorm,Thunderstorm,10,2013-09-24 22:56:00
6:03 PM,73.4,69.8,88,29.84,7.0,NNE,10.4,-,0.00,Rain-Thunderstorm,Light Thunderstorms and Rain,20,2013-09-24 23:03:00
6:53 PM,71.6,69.8,94,29.81,5.0,NNE,12.7,-,0.17,Rain-Thunderstorm,Light Thunderstorms and Rain,30,2013-09-24 23:53:00
6:56 PM,72.0,69.1,91,29.81,5.0,NNE,11.5,-,0.18,Rain-Thunderstorm,Light Thunderstorms and Rain,20,2013-09-24 23:56:00
7:23 PM,69.8,68.0,94,29.82,2.0,NE,11.5,-,0.37,Rain,Heavy Rain,50,2013-09-25 00:23:00
7:29 PM,69.8,68.0,94,29.83,1.0,ENE,13.8,-,0.59,Rain,Heavy Rain,60,2013-09-25 00:29:00
7:53 PM,69.8,68.0,94,29.82,2.0,East,9.2,-,0.96,,Mostly Cloudy,80,2013-09-25 00:53:00
7:56 PM,70.0,68.0,93,29.81,4.0,East,10.4,-,0.96,,Mostly Cloudy,90,2013-09-25 00:56:00
8:39 PM,71.6,68.0,88,29.82,10.0,ESE,8.1,-,N/A,,Scattered Clouds,120,2013-09-25 01:39:00
8:56 PM,71.1,68.0,90,29.80,10.0,ESE,5.8,-,N/A,,Scattered Clouds,120,2013-09-25 01:56:00
9:56 PM,71.1,69.1,93,29.80,10.0,SE,4.6,-,N/A,,Partly Cloudy,130,2013-09-25 02:56:00
10:56 PM,71.1,69.1,93,29.80,10.0,NNE,3.5,-,N/A,,Partly Cloudy,20,2013-09-25 03:56:00
11:07 PM,71.6,69.8,94,29.81,10.0,North,4.6,-,N/A,,Mostly Cloudy,360,2013-09-25 04:07:00
11:24 PM,71.6,69.8,94,29.81,10.0,NNW,3.5,-,N/A,,Overcast,340,2013-09-25 04:24:00
11:56 PM,71.1,69.1,93,29.80,10.0,North,4.6,-,N/A,,Overcast,350,2013-09-25 04:56:00